Weather History for Bentonville, AR

Change the Weather History Date:

Thursday, January 19, 2012

  Actual Average Record
Temperature  
Mean Temperature 42 °F -  
Max Temperature 55 °F 43 °F 74 °F (1952)
Min Temperature 28 °F 21 °F -11 °F (1984)
Degree Days  
Heating Degree Days 24    
Moisture  
Dew Point 25 °F    
Average Humidity 55    
Maximum Humidity 74    
Minimum Humidity 38    
Precipitation  
Precipitation 0.00 in - - ()
Sea Level Pressure  
Sea Level Pressure 29.88 in    
Wind  
Wind Speed 6 mph (ESE)    
Max Wind Speed 12 mph    
Max Gust Speed -    
Visibility 10 miles    
Events      
Averages and records for this station are not official NWS values.
T = Trace of Precipitation, MM = Missing Value Source: NWS Daily Summary

Daily Weather History Graph

Daily Weather History Graph

Search for Another Location

Airport:

Trip Planner

Search our weather history database for the weather conditions in past years. The results will help you decide how hot, cold, wet, or windy it might be!

Date:

Astronomy

Jan. 19, 2012 Rise Set
Actual Time 7:26 AM CST 5:29 PM CST
Civil Twilight 6:58 AM CST 5:56 PM CST
Nautical Twilight 6:27 AM CST 6:28 PM CST
Astronomical Twilight 5:56 AM CST 6:59 PM CST
Moon 4:01 AM CST (1/19) 2:03 PM CST (1/19)
Length of Visible Light 10h 58m
Length of Day
10h 02m
Waning Crescent, 15% of the Moon is Illuminated
Jan 19
Waning Crescent
Jan 23
New
Jan 30
First Quarter
Feb 7
Full
Feb 14
Last Quarter

Hourly Weather History & Observations

Time (CST) Temp. Windchill Dew Point Humidity Pressure Visibility Wind Dir Wind Speed Gust Speed Precip Events Conditions
12:15 AM 28.4 °F 23.3 °F 17.6 °F 64% 29.93 in 10.0 mi SSE 4.6 mph - N/A   Clear
12:35 AM 28.4 °F 22.2 °F 17.6 °F 64% 29.93 in 10.0 mi South 5.8 mph - N/A   Clear
12:55 AM 30.2 °F 25.4 °F 17.6 °F 60% 29.93 in 10.0 mi South 4.6 mph - N/A   Clear
1:15 AM 30.2 °F 25.4 °F 19.4 °F 64% 29.94 in 10.0 mi South 4.6 mph - N/A   Clear
1:35 AM 30.2 °F 25.4 °F 17.6 °F 60% 29.94 in 10.0 mi South 4.6 mph - N/A   Clear
1:55 AM 28.4 °F 22.2 °F 19.4 °F 69% 29.92 in 10.0 mi South 5.8 mph - N/A   Clear
2:35 AM 30.2 °F 23.4 °F 19.4 °F 64% 29.91 in 10.0 mi South 6.9 mph - N/A   Clear
2:55 AM 30.2 °F 25.4 °F 19.4 °F 64% 29.90 in 10.0 mi South 4.6 mph - N/A   Clear
3:15 AM 30.2 °F 25.4 °F 19.4 °F 64% 29.89 in 10.0 mi SSE 4.6 mph - N/A   Clear
3:35 AM 28.4 °F 23.3 °F 19.4 °F 69% 29.88 in 10.0 mi SSE 4.6 mph - N/A   Clear
3:55 AM 28.4 °F 24.6 °F 19.4 °F 69% 29.88 in 10.0 mi SSE 3.5 mph - N/A   Clear
4:15 AM 28.4 °F 23.3 °F 19.4 °F 69% 29.87 in 10.0 mi South 4.6 mph - N/A   Clear
4:35 AM 28.4 °F 23.3 °F 19.4 °F 69% 29.86 in 10.0 mi SSE 4.6 mph - N/A   Clear
4:55 AM 28.4 °F 23.3 °F 19.4 °F 69% 29.86 in 10.0 mi SSE 4.6 mph - N/A   Clear
5:15 AM 28.4 °F 24.6 °F 19.4 °F 69% 29.86 in 10.0 mi South 3.5 mph - N/A   Clear
5:35 AM 28.4 °F 23.3 °F 19.4 °F 69% 29.85 in 10.0 mi SSE 4.6 mph - N/A   Clear
6:15 AM 28.4 °F 23.3 °F 19.4 °F 69% 29.84 in 10.0 mi SE 4.6 mph - N/A   Clear
6:35 AM 30.2 °F 23.4 °F 19.4 °F 64% 29.83 in 10.0 mi SSE 6.9 mph - N/A   Clear
6:55 AM 28.4 °F 21.2 °F 21.2 °F 74% 29.84 in 10.0 mi SE 6.9 mph - N/A   Clear
7:15 AM 32.0 °F 26.4 °F 21.2 °F 64% 29.85 in 10.0 mi East 5.8 mph - N/A   Clear
7:35 AM 30.2 °F 25.4 °F 21.2 °F 69% 29.85 in 10.0 mi East 4.6 mph - N/A   Clear
7:55 AM 30.2 °F 25.4 °F 21.2 °F 69% 29.85 in 10.0 mi ESE 4.6 mph - N/A   Clear
8:15 AM 33.8 °F 29.6 °F 23.0 °F 65% 29.86 in 10.0 mi East 4.6 mph - N/A   Clear
8:35 AM 35.6 °F 29.9 °F 24.8 °F 65% 29.87 in 10.0 mi ENE 6.9 mph - N/A   Clear
8:55 AM 37.4 °F 32.8 °F 24.8 °F 60% 29.87 in 10.0 mi ENE 5.8 mph - N/A   Clear
9:15 AM 39.2 °F 35.0 °F 26.6 °F 61% 29.88 in 10.0 mi East 5.8 mph - N/A   Clear
9:35 AM 42.8 °F 39.3 °F 26.6 °F 53% 29.88 in 10.0 mi East 5.8 mph - N/A   Clear
9:55 AM 44.6 °F 42.2 °F 26.6 °F 49% 29.88 in 10.0 mi East 4.6 mph - N/A   Clear
10:15 AM 46.4 °F 44.3 °F 26.6 °F 46% 29.87 in 10.0 mi SE 4.6 mph - N/A   Clear
10:35 AM 48.2 °F - 26.6 °F 43% 29.88 in 10.0 mi SE 3.5 mph - N/A   Clear
10:55 AM 50.0 °F - 26.6 °F 40% 29.88 in 10.0 mi SSW 4.6 mph - N/A   Clear
11:35 AM 51.8 °F - 28.4 °F 41% 29.87 in 10.0 mi SW 5.8 mph - N/A   Clear
12:15 PM 51.8 °F - 30.2 °F 44% 29.86 in 10.0 mi WSW 11.5 mph - N/A   Clear
12:35 PM 53.6 °F - 32.0 °F 44% 29.84 in 10.0 mi West 6.9 mph - N/A   Clear
12:55 PM 53.6 °F - 33.8 °F 47% 29.83 in 10.0 mi WSW 8.1 mph - N/A   Clear
1:15 PM 53.6 °F - 32.0 °F 44% 29.84 in 10.0 mi NW 4.6 mph - N/A   Clear
1:35 PM 55.4 °F - 32.0 °F 41% 29.84 in 8.0 mi NNW 5.8 mph - N/A   Clear
1:55 PM 55.4 °F - 33.8 °F 44% 29.84 in 10.0 mi WNW 6.9 mph - N/A   Clear
2:35 PM 55.4 °F - 32.0 °F 41% 29.84 in 10.0 mi WNW 3.5 mph - N/A   Clear
2:55 PM 55.4 °F - 32.0 °F 41% 29.85 in 10.0 mi NW 6.9 mph - N/A   Clear
3:15 PM 55.4 °F - 32.0 °F 41% 29.85 in 10.0 mi NW 9.2 mph - N/A   Clear
3:35 PM 55.4 °F - 30.2 °F 38% 29.86 in 10.0 mi North 5.8 mph - N/A   Clear
3:55 PM 55.4 °F - 30.2 °F 38% 29.86 in 10.0 mi North 5.8 mph - N/A   Clear
4:15 PM 53.6 °F - 30.2 °F 41% 29.87 in 10.0 mi NNW 8.1 mph - N/A   Clear
4:35 PM 53.6 °F - 30.2 °F 41% 29.87 in 10.0 mi NNW 6.9 mph - N/A   Clear
4:55 PM 53.6 °F - 30.2 °F 41% 29.87 in 10.0 mi North 8.1 mph - N/A   Clear
5:15 PM 51.8 °F - 30.2 °F 44% 29.88 in 10.0 mi North 9.2 mph - N/A   Clear
5:35 PM 48.2 °F - 28.4 °F 46% 29.89 in 10.0 mi North 6.9 mph - N/A   Clear
5:55 PM 48.2 °F - 28.4 °F 46% 29.91 in 10.0 mi North 8.1 mph - N/A   Clear
6:15 PM 46.4 °F 41.5 °F 28.4 °F 50% 29.92 in 10.0 mi North 10.4 mph - N/A   Clear
6:35 PM 44.6 °F 39.7 °F 28.4 °F 53% 29.92 in 10.0 mi North 9.2 mph - N/A   Clear
6:55 PM 44.6 °F 40.2 °F 26.6 °F 49% 29.92 in 10.0 mi NNE 8.1 mph - N/A   Clear
7:15 PM 42.8 °F 39.3 °F 28.4 °F 57% 29.92 in 10.0 mi NE 5.8 mph - N/A   Clear
7:35 PM 42.8 °F 38.6 °F 26.6 °F 53% 29.91 in 10.0 mi NE 6.9 mph - N/A   Clear
7:55 PM 42.8 °F 38.0 °F 26.6 °F 53% 29.91 in 10.0 mi NE 8.1 mph - N/A   Clear
8:15 PM 41.0 °F 37.1 °F 26.6 °F 57% 29.90 in 10.0 mi ENE 5.8 mph - N/A   Clear
8:35 PM 41.0 °F 38.0 °F 26.6 °F 57% 29.90 in 10.0 mi ENE 4.6 mph - N/A   Clear
8:55 PM 39.2 °F - 26.6 °F 61% 29.91 in 10.0 mi Calm Calm - N/A   Clear
9:15 PM 37.4 °F - 26.6 °F 65% 29.91 in 10.0 mi Calm Calm - N/A   Clear
9:35 PM 35.6 °F - 26.6 °F 70% 29.92 in 10.0 mi Calm Calm - N/A   Clear
9:55 PM 35.6 °F 32.8 °F 26.6 °F 70% 29.92 in 10.0 mi North 3.5 mph - N/A   Clear
10:15 PM 35.6 °F 29.9 °F 26.6 °F 70% 29.91 in 10.0 mi NNE 6.9 mph - N/A   Clear
10:35 PM 35.6 °F 29.2 °F 26.6 °F 70% 29.91 in 10.0 mi North 8.1 mph - N/A   Clear
10:55 PM 35.6 °F 29.9 °F 26.6 °F 70% 29.92 in 10.0 mi North 6.9 mph - N/A   Clear
11:15 PM 33.8 °F 27.0 °F 26.6 °F 75% 29.92 in 10.0 mi NNE 8.1 mph - N/A   Clear
11:35 PM 33.8 °F 28.6 °F 26.6 °F 75% 29.92 in 10.0 mi NNE 5.8 mph - N/A   Clear
11:55 PM 33.8 °F 27.7 °F 24.8 °F 70% 29.92 in 10.0 mi NNE 6.9 mph - N/A   Clear